Other Public Products
Issued by NWS Grand Forks, ND

Home | Current Version | Previous Version | Text Only | Print | Product List | Glossary Off
Versions: 1 2 3 4 5 6 7 8 9 10 11 12 13 14 15 16 17 18 19 20 21 22 23 24 25 26 27 28 29 30 31 32 33 34 35 36 37 38 39 40 41 42 43 44 45 46 47 48 49 50

000
FPUS83 KFGF 280610
OPUFGF
PRAIRIE TO PINES WEATHER ROUNDUP
NATIONAL WEATHER SERVICE EASTERN NORTH DAKOTA/GRAND FORKS ND
100 AM CDT TUE MAR 28 2017

 **SATELLITE DATA USED TO AUGMENT SKY COVER AT AUTOMATED STATIONS**
 *****  WEATHER ACROSS EASTERN NORTH DAKOTA  *****

CITY           SKY/WX    TMP DP  RH WIND       PRES   REMARKS
GRAND FORKS    CLOUDY    35  35 100 N7        30.09S FOG
6HR MIN TEMP:  35; 6HR MAX TEMP:  41; 6HR PCP: TRACE;

GRAND FORKS AF PTCLDY    35  35 100 NW7       30.10R
GRAND CITY NWS NOT AVBL
BUXTON         NOT AVBL
DEVILS LAKE    FAIR      34  33  96 E8        30.08S FOG
6HR MIN TEMP:  34; 6HR MAX TEMP:  46; 6HR PCP: TRACE;

FARGO          FOG       37  37 100 NE9       30.06S VSB 1/4
6HR MIN TEMP:  37; 6HR MAX TEMP:  55;

WAHPETON ARPT  FAIR      37  36  93 N6        30.05S
$$

 *****  WEATHER ACROSS CENTRAL AND WESTERN NORTH DAKOTA  *****

CITY           SKY/WX    TMP DP  RH WIND       PRES   REMARKS
JAMESTOWN      FOG       34  34 100 E6        30.05R VSB 1/4
6HR MIN TEMP:  34; 6HR MAX TEMP:  54;

BISMARCK       FAIR      40  35  83 E3        30.02R
6HR MIN TEMP:  39; 6HR MAX TEMP:  63;

MINOT          FOG       36  35  96 NE7       30.06R VSB 1/4
6HR MIN TEMP:  36; 6HR MAX TEMP:  37;

MINOT AFB      FOG       36  36 100 NE7       30.06R VSB 1/2
GARRISON         N/A     36  36 100 E12       30.02R
6HR MIN TEMP:  36; 6HR MAX TEMP:  46;

WILLISTON      CLOUDY    40  37  89 E9        30.01S
6HR MIN TEMP:  39; 6HR MAX TEMP:  54; 6HR PCP:  0.01;

DICKINSON      FAIR      38  30  73 SE7       29.96R
6HR MIN TEMP:  36; 6HR MAX TEMP:  59;

HETTINGER      FAIR      39  31  72 SE5       29.99S
6HR MIN TEMP:  38; 6HR MAX TEMP:  59;

$$

 *****  OTHER OBSERVATIONS NORTHEAST NORTH DAKOTA  *****

CITY           SKY/WX    TMP DP  RH WIND       PRES   REMARKS
WALHALLA       NOT AVBL
LANGDON        MOCLDY    34  32  93 NE14      30.09S WCI  24
CAVALIER       CLOUDY    34  30  86 N9        30.12R
GRAFTON        CLOUDY    34  34 100 N10       30.12S
CANDO          NOT AVBL
FORT TOTTEN      N/A     33  33 100 NE3       29.95
ROLLA          CLOUDY    32  32 100 NE9       30.10R WCI  24
RUGBY          NOT AVBL
 ***** THE ABOVE OBSERVATIONS ARE NON NWS ARE NOT QUALITY
        CONTROLLED AND MAY MIS-REPORT RAIN FOR SNOW...
$$

 *****  OTHER OBSERVATIONS SOUTHEAST NORTH DAKOTA *****

CITY           SKY/WX    TMP DP  RH WIND       PRES   REMARKS
COOPERSTOWN    FOG       34  34 100 NE5       30.08R VSB 1/2
VALLEY CITY    DRZL/FOG  36  36 100 NE9       30.08R VSB<1/4
OAKES          NOT AVBL
GWINNER        FOG       36  36 100 MISG      30.05S VSB 0
SHEYENNE NWR     N/A     37  37 100 NE7       29.95S
BUFFALO        NOT AVBL
WYNDMERE       NOT AVBL
 ***** THE ABOVE OBSERVATIONS ARE NON NWS ARE NOT QUALITY
       CONTROLLED AND MAY MIS-REPORT RAIN FOR SNOW...
$$

  *****  WEATHER ACROSS NORTHERN MINNESOTA  *****

CITY           SKY/WX    TMP DP  RH WIND       PRES   REMARKS
FLAG ISLAND    FAIR      36  30  80 CALM      30.09R
WARROAD        MOCLDY    39  32  75 N7        30.09R
ROSEAU         FAIR      36  32  87 CALM      30.09R
HALLOCK        MOCLDY    34  32  93 N6        30.10R
THF RVR FALLS  FAIR     N/A N/A N/A CALM      30.08S
HALSTAD          N/A     36  36  98 N9          N/A
FOSSTON        CLOUDY    34  32  93 NE3       30.07S
BAUDETTE       CLOUDY    39  29  67 N5        30.06R
6HR MIN TEMP:  38; 6HR MAX TEMP:  45;

WASKISH        CLOUDY    36  30  80 CALM      30.06R
CROOKSTON      FOG       34  34 100 N6        30.09S VSB 1/4
$$
  *****  WEATHER ACROSS CENTRAL AND WEST MINNESOTA  *****

CITY           SKY/WX    TMP DP  RH WIND       PRES   REMARKS
BEMIDJI        FAIR      29  26  86 NW6       30.06R WCI  23
PARK RAPIDS    FAIR      38  25  59 N6        30.04S
6HR MIN TEMP:  32; 6HR MAX TEMP:  58;

WADENA         FAIR      32  30  93 CALM      30.04R
DETROIT LAKES  FOG       34  34 100 CALM      30.06R VSB 1/2
MOORHEAD       DRZL/FOG  36  36 100 N7        30.08R VSB 1/4
FERGUS FALLS   FAIR      39  39 100 NE5       30.08S
ELBOW LAKE     FAIR      37  36  93 CALM      30.05R
6HR MIN TEMP:  36; 6HR MAX TEMP:  54;

MORRIS MN      FAIR      39  34  81 CALM      30.04R
STAPLES        NOT AVBL
WHEATON        FAIR      36  30  80 CALM      30.07R
$$
  *****  WEATHER ELSEWHERE ACROSS MINNESOTA  *****

CITY           SKY/WX    TMP DP  RH WIND       PRES   REMARKS
DULUTH         FAIR      30  27  88 CALM      30.04R
6HR MIN TEMP:  29; 6HR MAX TEMP:  44;

INTRNTL FALLS  CLOUDY    41  27  57 NE5       30.05R
6HR MIN TEMP:  36; 6HR MAX TEMP:  53;

ELY            FAIR      27  25  93 CALM      30.04S
CLOQUET        FAIR      28  27  93 CALM      30.05R
BRAINERD       FAIR      30  27  88 CALM      30.05R
6HR MIN TEMP:  28; 6HR MAX TEMP:  55;

HIBBING        FAIR      26  25  96 NW3       30.04R
6HR MIN TEMP:  25; 6HR MAX TEMP:  53;

ALEXANDRIA     FAIR      38  33  82 CALM      30.05R
6HR MIN TEMP:  37; 6HR MAX TEMP:  55;

SAINT CLOUD    FAIR      32  31  96 CALM      30.04R
6HR MIN TEMP:  31; 6HR MAX TEMP:  55;

MINNEAPOLIS    FAIR      42  35  76 CALM      30.03R
6HR MIN TEMP:  41; 6HR MAX TEMP:  53;

$$

  *****  WEATHER ACROSS SOUTH DAKOTA  *****

CITY           SKY/WX    TMP DP  RH WIND       PRES   REMARKS
SIOUX FALLS    FAIR      41  37  86 S5        30.04R
6HR MIN TEMP:  40; 6HR MAX TEMP:  55;

BROOKINGS      MOCLDY    42  36  79 SE3       30.03R
WATERTOWN      CLOUDY    44  37  76 CALM      30.03R
6HR MIN TEMP:  42; 6HR MAX TEMP:  53;

HURON          FAIR      41  36  82 SE9       30.02R
6HR MIN TEMP:  41; 6HR MAX TEMP:  58;

SISSETON         N/A     33  30  88 NW7       30.04R
ABERDEEN       FAIR      37  32  82 E5        30.04R
6HR MIN TEMP:  37; 6HR MAX TEMP:  56;

MITCHELL       MOCLDY    40  37  89 SE6       30.03R
PIERRE         FAIR      39  32  76 E8        29.98R
6HR MIN TEMP:  38; 6HR MAX TEMP:  58;

MOBRIDGE       FAIR      39  31  72 E3        29.99R
RAPID CITY     FAIR      39  32  76 N5        29.94S
6HR MIN TEMP:  39; 6HR MAX TEMP:  59;

$$

  *****  SOME WEATHER IN NEARBY STATES *****

CITY           SKY/WX    TMP DP  RH WIND       PRES   REMARKS
GLASGOW MT     FAIR      38  33  82 E12       29.96R
6HR MIN TEMP:  38; 6HR MAX TEMP:  57;

GREAT FALLS MT CLOUDY    40  34  79 SW13      30.02R
6HR MIN TEMP:  39; 6HR MAX TEMP:  50; 6HR PCP:  0.02;

CHEYENNE WY    LGT RAIN  43  39  86 SE7       29.88S
6HR MIN TEMP:  42; 6HR MAX TEMP:  54; 6HR PCP:  0.11;

SCOTTSBLUFF NE LGT RAIN  49  44  83 N13       29.87S
6HR MIN TEMP:  48; 6HR MAX TEMP:  62; 6HR PCP:  0.01;

OMAHA NE       FAIR      40  35  83 CALM      30.04R
6HR MIN TEMP:  40; 6HR MAX TEMP:  51;

DES MOINES IA  CLOUDY    48  41  76 N3        30.03R
6HR MIN TEMP:  48; 6HR MAX TEMP:  51;

DAVENPORT IA   CLOUDY    48  45  89 N6        29.99R
6HR MIN TEMP:  47; 6HR MAX TEMP:  50;

CHICAGO IL     CLOUDY    42  36  79 NE8       29.99R
6HR MIN TEMP:  42; 6HR MAX TEMP:  45;

EAU CLAIRE WI  FAIR      31  29  92 CALM      30.04R
6HR MIN TEMP:  30; 6HR MAX TEMP:  46;

LA CROSSE WI   FAIR      39  37  92 N5        30.04R
6HR MIN TEMP:  40; 6HR MAX TEMP:  47;

$$

  *****  SOME NATIONAL WEATHER *****

CITY           SKY/WX    TMP DP  RH WIND       PRES   REMARKS
LA GUARDIA NY  CLOUDY    43  40  89 E7        29.97F FOG
6HR MIN TEMP:  42; 6HR MAX TEMP:  49; 6HR PCP:  0.03;

RALEIGH NC     MOCLDY    66  54  65 S9        29.97F



USA.gov is the U.S. government's official web portal to all federal, state and local government web resources and services.